Stations météo

réclame
Mon MeteoGroup
Gemini, Pays-Bas (6214): Température de l'air & dewpoint: 18.05.2019 03:00:00 - 24.05.2019 03:00:00 (CEST)Gemini, Pays-Bas (6214): Vitesse du vent & gusts: 18.05.2019 03:00:00 - 24.05.2019 03:00:00 (CEST)Gemini, Pays-Bas (6214): Direction du vent: 18.05.2019 03:00:00 - 24.05.2019 03:00:00 (CEST)Gemini, Pays-Bas (6214): reduced air pressure: 18.05.2019 03:00:00 - 24.05.2019 03:00:00 (CEST)Gemini, Pays-Bas (6214): visibility: 18.05.2019 03:00:00 - 24.05.2019 03:00:00 (CEST)
Date & Time tt [°C] td [°C] ff [km/h] ff [knt] fx [km/h] fx [knt] dd ppp [hPa] vv [km]
24.05.2019 03:00:00 12,1 8,8 16 9 22 12 SW 1013,7 10
24.05.2019 02:00:00 12,1 7,2 15 8 22 12 SW 1013,9 10
24.05.2019 01:00:00 11,7 7,1 15 8 18 10 SW 1014,5 10
24.05.2019 00:00:00 11,7 7,1 13 7 18 10 WSW 1015,0 10
23.05.2019 23:00:00 11,4 8,3 15 8 18 10 WSW 1015,1 10
23.05.2019 22:00:00 11,7 7,3 11 6 14 8 W 1015,5 10
23.05.2019 21:00:00 11,9 7,3 13 7 14 8 W 1015,5 10
23.05.2019 20:00:00 12,2 6,8 13 7 18 10 W 1015,5 10
23.05.2019 19:00:00 12,4 7,1 18 10 18 10 W 1015,7 10
23.05.2019 18:00:00 12,5 7,3 11 6 18 10 W 1016,0 10
23.05.2019 17:00:00 11,9 9,9 13 7 18 10 WSW 1016,2 10
23.05.2019 16:00:00 12,0 10,3 11 6 22 12 WSW 1016,4 20
23.05.2019 15:00:00 12,4 10,1 13 7 25 14 WSW 1016,3 10
23.05.2019 14:00:00 12,8 10,1 15 8 25 14 WSW 1016,6 10
23.05.2019 13:00:00 12,5 9,8 22 12 32 18 WSW 1016,7 10
23.05.2019 12:00:00 12,9 9,1 26 14 36 19 WSW 1016,8 10
23.05.2019 11:00:00 12,6 8,8 34 18 36 19 SW 1016,7 10
23.05.2019 10:00:00 12,8 8,6 31 17 36 19 SW 1016,8 10
23.05.2019 09:00:00 12,1 9,5 34 18 36 19 SW 1016,7 10
23.05.2019 08:00:00 12,0 9,5 34 18 36 19 SW 1016,7 10
23.05.2019 07:00:00 11,9 9,5 31 17 36 19 SW 1016,5 10
23.05.2019 06:00:00 11,9 8,8 29 16 36 19 SW 1016,7 10
23.05.2019 05:00:00 12,0 9,1 26 14 32 18 SW 1017,0 10
23.05.2019 04:00:00 11,8 9,7 28 15 32 18 SW 1017,3 10
23.05.2019 03:00:00 11,4 9,0 22 12 25 14 SW 1017,7 10
23.05.2019 02:00:00 11,4 8,4 21 11 25 14 SW 1018,0 10
23.05.2019 01:00:00 11,2 8,0 18 10 25 14 SW 1018,3 10
23.05.2019 00:00:00 10,9 8,2 16 9 22 12 SW 1018,5 10
22.05.2019 23:00:00 10,8 7,1 11 6 18 10 WSW 1018,4 10
22.05.2019 22:00:00 10,7 7,7 11 6 18 10 W 1018,6 10
22.05.2019 21:00:00 10,9 8,2 18 10 22 12 W 1018,4 10
22.05.2019 20:00:00 11,1 8,0 22 12 25 14 WNW 1018,6 10
22.05.2019 19:00:00 11,3 8,5 21 11 29 16 W 1018,7 10
22.05.2019 18:00:00 11,3 9,2 18 10 25 14 WSW 1018,7 10
22.05.2019 17:00:00 11,0 8,4 13 7 22 12 WSW 1018,8 10
22.05.2019 16:00:00 11,3 7,8 18 10 25 14 W 1019,0 10
22.05.2019 15:00:00 11,5 7,4 11 6 18 10 W 1018,9 10
22.05.2019 14:00:00 11,5 7,0 18 10 22 12 W 1019,0 10
22.05.2019 13:00:00 11,4 7,0 18 10 25 14 WNW 1018,6 10
22.05.2019 12:00:00 10,6 6,8 18 10 25 14 WNW 1018,4 10
22.05.2019 11:00:00 10,9 6,4 24 13 36 19 NW 1018,1 10
22.05.2019 10:00:00 10,6 6,6 24 13 32 18 NW 1017,6 10
22.05.2019 09:00:00 10,5 7,2 18 10 36 19 NNW 1017,3 10
22.05.2019 08:00:00 10,5 7,1 29 16 40 21 NNW 1016,9 10
22.05.2019 07:00:00 10,5 7,6 24 13 40 21 NNW 1016,7 10
22.05.2019 06:00:00 10,3 7,7 29 16 40 21 NW 1016,3 10
22.05.2019 05:00:00 10,3 7,9 28 15 43 23 NNW 1015,8 10
22.05.2019 04:00:00 10,2 8,1 29 16 43 23 NNW 1015,5 10
22.05.2019 03:00:00 10,2 8,4 26 14 36 19 NNW 1015,5 10
22.05.2019 02:00:00 10,3 8,5 22 12 40 21 NNW 1015,4 20
22.05.2019 01:00:00 10,1 8,7 29 16 40 21 NNW 1015,2 10
22.05.2019 00:00:00 10,3 9,0 34 18 40 21 N 1015,2 10
21.05.2019 23:00:00 10,2 9,0 34 18 43 23 NNW 1014,9 10
21.05.2019 22:00:00 10,4 9,4 42 23 43 23 NNW 1014,7 10
21.05.2019 21:00:00 10,4 9,5 35 19 43 23 NNW 1014,3 8
21.05.2019 20:00:00 10,4 9,6 34 18 40 21 NNW 1013,8 8
21.05.2019 19:00:00 10,5 10,1 29 16 36 19 NNW 1013,5 4,5
21.05.2019 18:00:00 10,6 10,2 28 15 36 19 NNW 1013,0 2,0
21.05.2019 17:00:00 10,6 10,3 28 15 36 19 NNW 1012,8 3,8
21.05.2019 16:00:00 10,6 10,3 29 16 36 19 NNW 1012,7 4,3
21.05.2019 15:00:00 10,7 10,4 24 13 32 18 NNW 1012,3 1,6
21.05.2019 14:00:00 11,2 10,6 26 14 32 18 NNW 1012,2 10
21.05.2019 13:00:00 10,9 10,8 21 11 29 16 NNW 1012,2 3,4
21.05.2019 12:00:00 11,0 11,0 21 11 29 16 NNW 1011,9 1,3
21.05.2019 11:00:00 11,1 11,1 24 13 29 16 NNW 1011,8 0,3
21.05.2019 10:00:00 10,5 10,5 21 11 25 14 NNW 1011,4 0,2
21.05.2019 09:00:00 10,5 10,5 22 12 25 14 N 1011,0 0,2
21.05.2019 08:00:00 10,7 10,7 26 14 25 14 N 1010,9 0,2
21.05.2019 07:00:00 10,7 10,7 24 13 25 14 N 1010,6 0,3
21.05.2019 06:00:00 10,8 10,8 22 12 25 14 N 1010,3 0,3
21.05.2019 05:00:00 10,9 10,9 21 11 22 12 N 1009,7 0,5
21.05.2019 04:00:00 10,6 10,6 18 10 22 12 N 1009,6 0,5
21.05.2019 03:00:00 10,9 10,7 24 13 25 14 N 1009,4 1,1
21.05.2019 02:00:00 12,1 11,4 26 14 29 16 N 1009,7 10
21.05.2019 01:00:00 11,8 11,4 21 11 22 12 N 1009,7 8
21.05.2019 00:00:00 11,8 11,2 22 12 25 14 NNW 1009,6 10
20.05.2019 23:00:00 12,4 11,3 21 11 25 14 N 1009,5 10
20.05.2019 22:00:00 12,8 11,4 28 15 29 16 N 1009,2 10
20.05.2019 21:00:00 12,3 11,5 28 15 29 16 NNE 1009,2 9
20.05.2019 20:00:00 11,9 11,7 18 10 22 12 NNE 1008,9 4,8
20.05.2019 19:00:00 11,1 10,9 16 9 18 10 N 1008,6 0,1
20.05.2019 18:00:00 12,1 11,9 11 6 14 8 NNE 1008,5 0,1
20.05.2019 17:00:00 12,1 12,0 11 6 14 8 ENE 1008,7 0,1
20.05.2019 16:00:00 12,4 11,7 15 8 14 8 N 1008,5 2,0
20.05.2019 15:00:00 11,6 11,4 5 3 11 6 E 1008,8 0,5
20.05.2019 14:00:00 12,0 11,6 9 5 11 6 NNE 1008,7 0,3
20.05.2019 13:00:00 12,1 11,7 15 8 14 8 NNE 1008,2 0,3
20.05.2019 12:00:00 11,9 11,6 2 1 7 4 - 1007,7 0,1
20.05.2019 11:00:00 11,7 11,2 4 2 11 6 - 1007,7 0,2
20.05.2019 10:00:00 12,0 11,8 11 6 14 8 NNE 1007,4 0,1
20.05.2019 09:00:00 12,2 12,1 15 8 25 14 NE 1007,5 0,9
20.05.2019 08:00:00 12,8 12,2 21 11 22 12 NE 1007,1 8
20.05.2019 07:00:00 12,2 11,9 15 8 18 10 N 1006,6 5
20.05.2019 06:00:00 11,9 11,6 15 8 18 10 N 1006,6 3,8
20.05.2019 05:00:00 11,9 11,9 13 7 14 8 NNE 1006,6 1,6
20.05.2019 04:00:00 11,7 11,6 21 11 29 16 NE 1006,6 4,4
20.05.2019 03:00:00 11,2 11,1 22 12 25 14 NE 1006,7 1,8
20.05.2019 02:00:00 11,5 11,4 21 11 29 16 NE 1007,2 2,5
20.05.2019 01:00:00 11,4 11,3 24 13 29 16 NE 1007,6 3,3
20.05.2019 00:00:00 11,3 11,2 22 12 29 16 NNE 1008,0 0,9
19.05.2019 23:00:00 11,4 11,2 24 13 29 16 NNE 1007,8 0,7
19.05.2019 22:00:00 12,3 11,8 18 10 25 14 NNE 1007,5 6
19.05.2019 21:00:00 12,2 12,1 22 12 29 16 NE 1007,3 4,8
19.05.2019 20:00:00 11,7 11,7 26 14 29 16 NE 1007,2 0,5
19.05.2019 19:00:00 11,6 11,6 28 15 29 16 NE 1007,1 0,1
19.05.2019 18:00:00 11,6 11,6 22 12 29 16 ENE 1007,2 0,2
19.05.2019 17:00:00 11,2 11,2 26 14 29 16 ENE 1007,5 0,4
19.05.2019 16:00:00 11,0 11,0 26 14 29 16 ENE 1007,6 0,3
19.05.2019 15:00:00 10,9 10,9 28 15 29 16 ENE 1007,7 0,4
19.05.2019 14:00:00 10,8 10,8 28 15 29 16 ENE 1008,0 0,2
19.05.2019 13:00:00 10,5 10,5 24 13 25 14 NE 1008,0 0,2
19.05.2019 12:00:00 10,2 10,2 21 11 22 12 NE 1008,1 0,1
19.05.2019 11:00:00 10,8 10,8 21 11 22 12 ENE 1008,2 0,1
19.05.2019 10:00:00 12,8 11,1 16 9 18 10 NE 1008,1 3,6
19.05.2019 09:00:00 12,7 11,4 16 9 25 14 ENE 1008,1 6
19.05.2019 08:00:00 12,5 11,0 24 13 25 14 NE 1007,7 6
19.05.2019 07:00:00 12,4 11,0 16 9 18 10 NE 1007,6 7
19.05.2019 06:00:00 12,4 11,1 18 10 18 10 NE 1007,3 8
19.05.2019 05:00:00 12,2 11,1 21 11 22 12 NNE 1007,4 8
19.05.2019 04:00:00 12,3 11,2 15 8 18 10 NE 1007,3 7
19.05.2019 03:00:00 12,6 11,3 15 8 18 10 E 1007,6 9
19.05.2019 02:00:00 13,0 11,4 15 8 14 8 NE 1007,8 9
19.05.2019 01:00:00 12,9 11,4 8 4 11 6 NE 1007,9 8
19.05.2019 00:00:00 13,3 11,6 8 4 11 6 ENE 1008,2 9
18.05.2019 23:00:00 13,6 11,5 13 7 18 10 ENE 1008,3 10
18.05.2019 22:00:00 13,9 11,5 9 5 14 8 ENE 1008,2 10
18.05.2019 21:00:00 13,5 11,3 9 5 14 8 E 1007,9 10
18.05.2019 20:00:00 13,2 11,3 9 5 18 10 E 1007,6 10
18.05.2019 19:00:00 13,0 11,2 9 5 14 8 E 1007,5 9
18.05.2019 18:00:00 12,1 11,3 11 6 18 10 E 1007,5 6
18.05.2019 17:00:00 12,0 11,3 11 6 18 10 E 1007,3 4,5
18.05.2019 16:00:00 12,2 11,4 11 6 18 10 - 1007,4 4,8
18.05.2019 15:00:00 10,8 10,8 15 8 18 10 E 1007,6 0,2
18.05.2019 14:00:00 10,5 10,5 18 10 25 14 E 1007,5 0,1
18.05.2019 13:00:00 10,0 10,0 22 12 25 14 ESE 1007,7 0,1
18.05.2019 12:00:00 10,1 10,0 22 12 25 14 ESE 1007,7 0,1
18.05.2019 11:00:00 11,6 10,4 15 8 22 12 ESE 1007,5 3,1
18.05.2019 10:00:00 11,7 10,4 13 7 22 12 ESE 1007,4 6
18.05.2019 09:00:00 11,5 10,4 18 10 22 12 ESE 1007,3 7
18.05.2019 08:00:00 11,7 10,1 26 14 25 14 ESE 1007,1 10
18.05.2019 07:00:00 11,8 9,7 21 11 25 14 ESE 1007,1 12
18.05.2019 06:00:00 12,0 9,1 22 12 29 16 ESE 1007,2 13
18.05.2019 05:00:00 12,7 8,4 22 12 29 16 ESE 1007,2 23
18.05.2019 04:00:00 12,1 8,8 18 10 25 14 ESE 1007,5 19
18.05.2019 03:00:00 12,4 8,7 24 13 29 16 ESE 1007,6 20

tt = Température de l'air
td = dewpoint
ff = Vitesse du vent
fx = gusts
dd = Direction du vent
ppp = reduced air pressure
vv = visibility

stations d'obs. à proximité